Showing default

ORBCOMM FM 37, 33064

Orbit data source: Space-Track

ORBCOMM FM 37, 33064 is a payload satellite owned by Orbcomm (US) in LEO that was launched on Thu, 19 Jun 2008 UTC via a KOSMOS 11K65M launch vehicle from the Kapustin Yar Missile And Space Complex (KYMTR). Payload-class satellites include a variety of spacecraft equipped with specific instruments for various scientific and technological missions. These include communications satellites like Starlink; space stations such as the ISS; scientific satellites like the Hubble; Earth observation satellites from companies like Planet Labs, Umbra, and HawkEye 360; GPS; miniature CubeSats for education and research; and military/defense satellites.

Loading next visibility...
Identifier
33064, 2008-031E
Orbit
LEO
Country
Flag of USUS / ORB
Related business
Manufacturer
OHB/POLK
Mission
Non-operational Commercial Communications
Bus & Motor
STERKH, Unknown motor
Mass
115 kg wet, 115 kg dry
Launch date (UTC)
2008-06-19 (18 years ago)
Launch vehicle
KOSMOS 11K65M
Launch site
Kapustin Yar Missile And Space Complex (KYMTR)
Object type
Payload
Rocket body
Debris
Shape & HBR
Box + 1 Ant, 0.8 m
Radar Cross Section
2.947 m², Large (>1 m²)

Expand to show TLE details & history
Last TLE update: 23 hours ago

TLE from 23 hours ago
0 ORBCOMM FM 37
1 33064U 08031E   26168.12806037  .00000997  00000-0  15367-3 0  9998
2 33064  48.4408  46.4891 0004765 148.7389 342.2517 14.81316235968124
Epoch: 2026-06-17T03:04Z
TLE epoch observation values (Epoch: 2026-06-17T03:04:24.415Z)
Latitude
34.5171°
Longitude
-122.33258°
Altitude
623.98 km
Speed
7.553 km/s
True Right ascension
12h 36m 38s
True Declination
34° 21' 13"
Sunlit
Object was in daylight at epoch
Visualization orbit readout
Latitude
Unknown
Longitude
Unknown
Altitude
Unknown
Speed
Unknown
Apparent Right ascension
Unknown
Apparent Declination
Unknown
Sunlit
N/A
Visualization observer readout
Local Sidereal Time
13:06:47
Azimuth
Unknown
Elevation
Unknown
Doppler factor
Unknown
Orbital elements
Apogee altitude
629.522 km
Perigee altitude
622.846 km
Semi-major axis
7,004.321 km
Eccentricity
0.00048
Inclination
48.4408°
RAAN
46.4891°
Arg. of periapsis
148.7389°
True anomaly
342.23505°
Mean anomaly
342.2517°
Eccentric anomaly
342.24337°
Mean motion
3.70249 °/min
Orbital period
97.23 mins
BSTAR
0.00015367
Loading maneuver chart data...
Computing Atmospheric mass density...
Loading historical data...
Loading historical data...
Loading historical data...
Loading historical data...
Loading historical data...
Loading historical data...
Loading historical data...

Documentation

Showing up to 5 results
|